FDB1025 VRMM-VCBI

Flight info

Callsign FDB1025
Flight time 1h 12m
Altitude 37000
Route HOKEY1A HOKEY M512 TELIG LALUM1A
Aircraft B38M/M-SDE1FGHILORVWXY/HB1

Departure

Time 2026-04-26 20:33
Airport Velana International Airport (VRMM)

Arrival

Time 2026-04-26 21:45
Airport Bandaranaike International Colombo Airport (VCBI)
Time Latitude Longitude Altitude Speed Heading
2026-04-26 20:01 4.18208 73.52788 16 ft 0 kts 269°
2026-04-26 20:11 4.18208 73.52794 16 ft 3 kts 269°
2026-04-26 20:11 4.18208 73.52812 16 ft 3 kts 269°
2026-04-26 20:12 4.18208 73.52826 5 ft 3 kts 277°
2026-04-26 20:12 4.18206 73.52843 16 ft 2 kts 282°
2026-04-26 20:12 4.18197 73.52857 19 ft 2 kts 340°
2026-04-26 20:12 4.18190 73.52859 18 ft 0 kts 359°
2026-04-26 20:13 4.18191 73.52859 18 ft 0 kts 359°
2026-04-26 20:14 4.18208 73.52859 17 ft 6 kts
2026-04-26 20:14 4.18274 73.52860 16 ft 14 kts
2026-04-26 20:14 4.18402 73.52862 16 ft 22 kts
2026-04-26 20:14 4.18477 73.52892 16 ft 9 kts 49°
2026-04-26 20:15 4.18532 73.52943 16 ft 12 kts 58°
2026-04-26 20:15 4.18545 73.52979 16 ft 0 kts 81°
2026-04-26 20:15 4.18545 73.52981 16 ft 0 kts 81°
2026-04-26 20:16 4.18545 73.52983 16 ft 0 kts 82°
2026-04-26 20:16 4.18545 73.52984 16 ft 0 kts 82°
2026-04-26 20:17 4.18546 73.52993 16 ft 3 kts 83°
2026-04-26 20:17 4.18548 73.53032 17 ft 8 kts 90°
2026-04-26 20:17 4.18569 73.53094 17 ft 10 kts 42°
2026-04-26 20:17 4.18610 73.53105 17 ft 0 kts 358°
2026-04-26 20:32 4.18737 73.53106 18 ft 55 kts
2026-04-26 20:32 4.19381 73.53106 18 ft 127 kts 360°
2026-04-26 20:32 4.20440 73.53071 209 ft 163 kts 356°
2026-04-26 20:33 4.21616 73.53054 899 ft 165 kts 359°
2026-04-26 20:33 4.22764 73.53068 1767 ft 167 kts 359°
2026-04-26 20:33 4.23920 73.53077 2602 ft 164 kts 359°
2026-04-26 20:33 4.25068 73.53082 3356 ft 167 kts
2026-04-26 20:34 4.26266 73.53084 3987 ft 179 kts
2026-04-26 20:34 4.27583 73.53084 4490 ft 200 kts
2026-04-26 20:34 4.29070 73.53083 4977 ft 227 kts
2026-04-26 20:34 4.30730 73.53079 5535 ft 250 kts
2026-04-26 20:35 4.32535 73.53074 6195 ft 268 kts
2026-04-26 20:35 4.34451 73.53068 6916 ft 281 kts
2026-04-26 20:35 4.36413 73.53062 7867 ft 284 kts
2026-04-26 20:35 4.38396 73.53161 8778 ft 287 kts 14°
2026-04-26 20:36 4.40204 73.53982 9720 ft 288 kts 39°
2026-04-26 20:36 4.41521 73.55509 10396 ft 298 kts 62°
2026-04-26 20:36 4.42140 73.57536 10891 ft 313 kts 86°
2026-04-26 20:36 4.42162 73.59771 11457 ft 327 kts 89°
2026-04-26 20:37 4.42179 73.62057 12312 ft 328 kts 89°
2026-04-26 20:37 4.42188 73.64334 13142 ft 333 kts 89°
2026-04-26 20:37 4.42193 73.66666 13932 ft 337 kts 89°
2026-04-26 20:37 4.42194 73.69032 14671 ft 341 kts 89°
2026-04-26 20:38 4.42194 73.71424 15389 ft 345 kts 89°
2026-04-26 20:38 4.42195 73.73843 16089 ft 349 kts 89°
2026-04-26 20:38 4.42234 73.76294 16773 ft 353 kts 83°
2026-04-26 20:38 4.42724 73.78715 17450 ft 357 kts 77°
2026-04-26 20:39 4.43275 73.81158 18081 ft 361 kts 77°
2026-04-26 20:39 4.43643 73.82790 18457 ft 364 kts 77°
2026-04-26 20:39 4.44399 73.86119 19225 ft 368 kts 77°
2026-04-26 20:39 4.44970 73.88629 19788 ft 371 kts 77°
2026-04-26 20:40 4.45546 73.91159 20351 ft 374 kts 77°
2026-04-26 20:40 4.46128 73.93714 20897 ft 377 kts 77°
2026-04-26 20:40 4.46704 73.96246 21432 ft 380 kts 77°
2026-04-26 20:40 4.47294 73.98839 21972 ft 383 kts 77°
2026-04-26 20:41 4.47889 74.01453 22498 ft 386 kts 77°
2026-04-26 20:41 4.48488 74.04084 23039 ft 388 kts 77°
2026-04-26 20:41 4.49089 74.06729 23528 ft 391 kts 78°
2026-04-26 20:41 4.49697 74.09404 23941 ft 394 kts 78°
2026-04-26 20:42 4.50309 74.12093 24381 ft 396 kts 78°
2026-04-26 20:42 4.50923 74.14795 24801 ft 399 kts 78°
2026-04-26 20:42 4.51542 74.17517 25219 ft 402 kts 78°
2026-04-26 20:42 4.52165 74.20261 25636 ft 404 kts 78°
2026-04-26 20:43 4.52792 74.23016 26049 ft 407 kts 78°
2026-04-26 20:43 4.53422 74.25790 26463 ft 409 kts 78°
2026-04-26 20:43 4.54070 74.28578 26863 ft 413 kts 76°
2026-04-26 20:43 4.54945 74.31329 27267 ft 416 kts 74°
2026-04-26 20:44 4.55825 74.34098 27651 ft 418 kts 75°
2026-04-26 20:44 4.56698 74.36892 28033 ft 421 kts 75°
2026-04-26 20:44 4.57570 74.39701 28434 ft 423 kts 75°
2026-04-26 20:44 4.58444 74.42526 28805 ft 426 kts 75°
2026-04-26 20:45 4.59324 74.45374 29175 ft 428 kts 75°
2026-04-26 20:45 4.60208 74.48235 29532 ft 431 kts 75°
2026-04-26 20:45 4.61095 74.51108 29883 ft 433 kts 75°
2026-04-26 20:45 4.61990 74.54004 30179 ft 436 kts 75°
2026-04-26 20:46 4.62889 74.56916 30480 ft 438 kts 75°
2026-04-26 20:46 4.63780 74.59803 30765 ft 440 kts 75°
2026-04-26 20:46 4.64687 74.62742 31057 ft 442 kts 75°
2026-04-26 20:46 4.65600 74.65701 31339 ft 445 kts 75°
2026-04-26 20:47 4.66517 74.68671 31625 ft 447 kts 75°
2026-04-26 20:47 4.67138 74.70684 31814 ft 448 kts 75°
2026-04-26 20:47 4.68362 74.74651 32176 ft 451 kts 75°
2026-04-26 20:47 4.69291 74.77663 32457 ft 454 kts 75°
2026-04-26 20:48 4.70225 74.80694 32726 ft 456 kts 75°
2026-04-26 20:48 4.71164 74.83739 32990 ft 458 kts 75°
2026-04-26 20:48 4.72108 74.86801 33255 ft 460 kts 75°
2026-04-26 20:48 4.73055 74.89873 33519 ft 462 kts 75°
2026-04-26 20:49 4.74005 74.92958 33813 ft 463 kts 75°
2026-04-26 20:49 4.74955 74.96040 34117 ft 463 kts 76°
2026-04-26 20:49 4.75906 74.99130 34407 ft 463 kts 76°
2026-04-26 20:49 4.76859 75.02224 34715 ft 463 kts 76°
2026-04-26 20:50 4.77808 75.05304 35063 ft 462 kts 76°
2026-04-26 20:50 4.78755 75.08378 35361 ft 461 kts 76°
2026-04-26 20:50 4.79689 75.11414 35667 ft 461 kts 76°
2026-04-26 20:50 4.80643 75.14497 35828 ft 463 kts 76°
2026-04-26 20:51 4.81598 75.17579 35832 ft 461 kts 76°
2026-04-26 20:51 4.83490 75.23694 35832 ft 459 kts 76°
2026-04-26 20:52 4.85385 75.29819 35829 ft 459 kts 76°
2026-04-26 20:52 4.87274 75.35926 35826 ft 458 kts 76°
2026-04-26 20:53 4.89164 75.42040 35827 ft 458 kts 76°
2026-04-26 20:53 4.91048 75.48134 35825 ft 457 kts 76°
2026-04-26 20:54 4.92920 75.54194 35826 ft 457 kts 76°
2026-04-26 20:54 4.94801 75.60285 35827 ft 457 kts 76°
2026-04-26 20:55 4.96678 75.66374 35825 ft 457 kts 76°
2026-04-26 20:55 4.98555 75.72475 35824 ft 457 kts 76°
2026-04-26 20:56 5.00427 75.78566 35818 ft 457 kts 76°
2026-04-26 20:56 5.02286 75.84610 35819 ft 456 kts 76°
2026-04-26 20:57 5.04152 75.90683 35823 ft 456 kts 76°
2026-04-26 20:57 5.06017 75.96756 35821 ft 455 kts 76°
2026-04-26 20:58 5.07884 76.02834 35819 ft 456 kts 76°
2026-04-26 20:58 5.09751 76.08918 35820 ft 456 kts 76°
2026-04-26 20:59 5.11617 76.14991 35822 ft 455 kts 75°
2026-04-26 20:59 5.13483 76.21061 35819 ft 454 kts 75°
2026-04-26 21:00 5.15031 76.26098 35820 ft 455 kts 75°
2026-04-26 21:00 5.16894 76.32164 35823 ft 454 kts 75°
2026-04-26 21:01 5.18755 76.38225 35821 ft 455 kts 75°
2026-04-26 21:01 5.20619 76.44299 35819 ft 456 kts 75°
2026-04-26 21:02 5.22472 76.50338 35818 ft 456 kts 75°
2026-04-26 21:02 5.24333 76.56405 35819 ft 454 kts 75°
2026-04-26 21:03 5.26193 76.62471 35822 ft 454 kts 75°
2026-04-26 21:03 5.28048 76.68525 35821 ft 454 kts 75°
2026-04-26 21:04 5.29906 76.74589 35819 ft 454 kts 75°
2026-04-26 21:04 5.31762 76.80650 35824 ft 454 kts 75°
2026-04-26 21:05 5.33620 76.86720 35821 ft 454 kts 75°
2026-04-26 21:05 5.35460 76.92731 35819 ft 453 kts 75°
2026-04-26 21:06 5.37309 76.98776 35823 ft 453 kts 75°
2026-04-26 21:06 5.39155 77.04814 35823 ft 453 kts 75°
2026-04-26 21:07 5.41000 77.10849 35825 ft 453 kts 75°
2026-04-26 21:07 5.42846 77.16890 35824 ft 453 kts 75°
2026-04-26 21:08 5.44692 77.22933 35818 ft 453 kts 75°
2026-04-26 21:08 5.46535 77.28971 35822 ft 452 kts 75°
2026-04-26 21:09 5.48376 77.35002 35826 ft 452 kts 75°
2026-04-26 21:09 5.50220 77.41048 35824 ft 452 kts 75°
2026-04-26 21:10 5.52048 77.47041 35824 ft 452 kts 75°
2026-04-26 21:10 5.53887 77.53076 35824 ft 452 kts 75°
2026-04-26 21:11 5.55726 77.59108 35822 ft 452 kts 75°
2026-04-26 21:11 5.57565 77.65146 35823 ft 453 kts 74°
2026-04-26 21:12 5.59408 77.71201 35826 ft 454 kts 74°
2026-04-26 21:12 5.61243 77.77231 35823 ft 454 kts 75°
2026-04-26 21:13 5.63102 77.83340 35823 ft 454 kts 75°
2026-04-26 21:13 5.64947 77.89405 35826 ft 454 kts 75°
2026-04-26 21:14 5.66783 77.95443 35827 ft 454 kts 75°
2026-04-26 21:14 5.69312 78.01232 35820 ft 457 kts 54°
2026-04-26 21:15 5.73225 78.06302 35810 ft 460 kts 53°
2026-04-26 21:15 5.77196 78.11346 35826 ft 460 kts 53°
2026-04-26 21:16 5.81188 78.16372 35825 ft 460 kts 53°
2026-04-26 21:16 5.85181 78.21396 35824 ft 460 kts 53°
2026-04-26 21:17 5.89156 78.26397 35823 ft 460 kts 53°
2026-04-26 21:17 5.93147 78.31421 35823 ft 460 kts 53°
2026-04-26 21:18 5.97141 78.36449 35824 ft 460 kts 53°
2026-04-26 21:18 6.01145 78.41492 35824 ft 461 kts 53°
2026-04-26 21:19 6.05118 78.46496 35114 ft 456 kts 53°
2026-04-26 21:19 6.07104 78.48998 34245 ft 458 kts 53°
2026-04-26 21:19 6.09077 78.51485 33530 ft 453 kts 53°
2026-04-26 21:19 6.11007 78.53917 33006 ft 449 kts 53°
2026-04-26 21:20 6.12949 78.56356 32509 ft 445 kts 51°
2026-04-26 21:20 6.15186 78.58496 31898 ft 446 kts 38°
2026-04-26 21:20 6.17644 78.60394 31325 ft 444 kts 40°
2026-04-26 21:20 6.20069 78.62314 30800 ft 442 kts 39°
2026-04-26 21:21 6.22491 78.64213 30267 ft 440 kts 39°
2026-04-26 21:21 6.24902 78.66097 29700 ft 439 kts 39°
2026-04-26 21:21 6.27309 78.67975 29079 ft 437 kts 39°
2026-04-26 21:21 6.29706 78.69844 28523 ft 434 kts 39°
2026-04-26 21:22 6.32082 78.71699 28019 ft 430 kts 39°
2026-04-26 21:22 6.34438 78.73538 27500 ft 427 kts 39°
2026-04-26 21:22 6.36774 78.75361 26985 ft 424 kts 39°
2026-04-26 21:23 6.41370 78.79032 25949 ft 419 kts 46°
2026-04-26 21:23 6.43225 78.81281 25391 ft 417 kts 52°
2026-04-26 21:23 6.45044 78.83537 24946 ft 414 kts 51°
2026-04-26 21:23 6.46829 78.85748 24480 ft 411 kts 51°
2026-04-26 21:24 6.48626 78.87981 24021 ft 409 kts 51°
2026-04-26 21:24 6.50409 78.90200 23551 ft 407 kts 51°
2026-04-26 21:24 6.52184 78.92410 23029 ft 405 kts 51°
2026-04-26 21:24 6.53949 78.94609 22538 ft 402 kts 51°
2026-04-26 21:25 6.55698 78.96789 22092 ft 398 kts 51°
2026-04-26 21:25 6.57429 78.98945 21665 ft 394 kts 51°
2026-04-26 21:25 6.59145 79.01084 21238 ft 390 kts 51°
2026-04-26 21:25 6.60847 79.03205 20821 ft 387 kts 51°
2026-04-26 21:26 6.62527 79.05310 20394 ft 384 kts 52°
2026-04-26 21:26 6.64177 79.07416 19932 ft 383 kts 52°
2026-04-26 21:26 6.65817 79.09508 19553 ft 379 kts 52°
2026-04-26 21:26 6.67442 79.11579 19160 ft 376 kts 52°
2026-04-26 21:27 6.69056 79.13636 18756 ft 374 kts 52°
2026-04-26 21:27 6.70640 79.15654 18369 ft 371 kts 52°
2026-04-26 21:27 6.72240 79.17694 17948 ft 369 kts 52°
2026-04-26 21:27 6.73829 79.19718 17508 ft 367 kts 52°
2026-04-26 21:28 6.75401 79.21724 17114 ft 363 kts 52°
2026-04-26 21:28 6.76961 79.23712 16721 ft 360 kts 52°
2026-04-26 21:28 6.78503 79.25677 16338 ft 356 kts 52°
2026-04-26 21:28 6.80029 79.27624 15957 ft 353 kts 52°
2026-04-26 21:29 6.81542 79.29553 15584 ft 350 kts 52°
2026-04-26 21:29 6.83041 79.31466 15201 ft 347 kts 52°
2026-04-26 21:29 6.84533 79.33368 14834 ft 344 kts 52°
2026-04-26 21:29 6.86008 79.35251 14465 ft 341 kts 52°
2026-04-26 21:30 6.87455 79.37096 14104 ft 339 kts 52°
2026-04-26 21:30 6.88908 79.38950 13741 ft 336 kts 52°
2026-04-26 21:30 6.90356 79.40799 13343 ft 334 kts 52°
2026-04-26 21:30 6.91793 79.42633 12948 ft 332 kts 52°
2026-04-26 21:31 6.93219 79.44447 12577 ft 329 kts 51°
2026-04-26 21:31 6.94896 79.45999 12167 ft 328 kts 38°
2026-04-26 21:31 6.96694 79.47400 11821 ft 325 kts 39°
2026-04-26 21:31 6.98465 79.48794 11535 ft 320 kts 39°
2026-04-26 21:32 7.00180 79.50146 11290 ft 314 kts 39°
2026-04-26 21:32 7.01890 79.51498 10980 ft 311 kts 39°
2026-04-26 21:32 7.03586 79.52838 10673 ft 308 kts 39°
2026-04-26 21:32 7.05252 79.54155 10499 ft 300 kts 39°
2026-04-26 21:33 7.06871 79.55436 10367 ft 291 kts 39°
2026-04-26 21:33 7.08445 79.56681 10226 ft 283 kts 39°
2026-04-26 21:33 7.09972 79.57888 10080 ft 275 kts 39°
2026-04-26 21:33 7.11470 79.59073 9824 ft 273 kts 39°
2026-04-26 21:34 7.12959 79.60251 9505 ft 272 kts 39°
2026-04-26 21:34 7.14443 79.61426 9185 ft 271 kts 39°
2026-04-26 21:34 7.15919 79.62594 8885 ft 269 kts 39°
2026-04-26 21:34 7.17386 79.63754 8595 ft 267 kts 39°
2026-04-26 21:35 7.18845 79.64909 8306 ft 266 kts 39°
2026-04-26 21:35 7.20291 79.66054 8021 ft 264 kts 39°
2026-04-26 21:35 7.21730 79.67193 7738 ft 262 kts 39°
2026-04-26 21:35 7.23140 79.68309 7462 ft 260 kts 39°
2026-04-26 21:36 7.24557 79.69432 7171 ft 259 kts 39°
2026-04-26 21:36 7.25510 79.70190 6960 ft 259 kts 39°
2026-04-26 21:36 7.27380 79.71676 6589 ft 258 kts 39°
2026-04-26 21:36 7.28784 79.72792 6310 ft 256 kts 39°
2026-04-26 21:37 7.30175 79.73897 6092 ft 252 kts 39°
2026-04-26 21:37 7.31532 79.74972 5946 ft 245 kts 39°
2026-04-26 21:37 7.32876 79.76034 5625 ft 246 kts 39°
2026-04-26 21:37 7.34223 79.77098 5310 ft 246 kts 39°
2026-04-26 21:38 7.35572 79.78164 5011 ft 246 kts 39°
2026-04-26 21:38 7.36919 79.79229 4722 ft 246 kts 38°
2026-04-26 21:38 7.38267 79.80294 4411 ft 247 kts 38°
2026-04-26 21:38 7.39601 79.81378 4095 ft 246 kts 45°
2026-04-26 21:39 7.40443 79.82840 3790 ft 243 kts 79°
2026-04-26 21:39 7.40348 79.84504 3541 ft 238 kts 111°
2026-04-26 21:39 7.39518 79.85915 3349 ft 232 kts 126°
2026-04-26 21:39 7.38603 79.87225 3211 ft 224 kts 126°
2026-04-26 21:40 7.37716 79.88493 3040 ft 219 kts 126°
2026-04-26 21:40 7.36842 79.89736 2821 ft 216 kts 126°
2026-04-26 21:40 7.35977 79.90961 2622 ft 213 kts 126°
2026-04-26 21:40 7.35098 79.92131 2432 ft 206 kts 128°
2026-04-26 21:41 7.34230 79.93261 2234 ft 202 kts 129°
2026-04-26 21:41 7.33380 79.94372 2041 ft 198 kts 129°
2026-04-26 21:41 7.32561 79.95444 1876 ft 191 kts 129°
2026-04-26 21:41 7.31767 79.96482 1700 ft 183 kts 130°
2026-04-26 21:42 7.30798 79.97197 1514 ft 169 kts 169°
2026-04-26 21:42 7.29678 79.97073 1408 ft 164 kts 208°
2026-04-26 21:42 7.28722 79.96426 1526 ft 167 kts 216°
2026-04-26 21:42 7.27780 79.95735 1580 ft 168 kts 216°
2026-04-26 21:43 7.26844 79.95037 1553 ft 167 kts 217°
2026-04-26 21:43 7.25912 79.94342 1510 ft 167 kts 217°
2026-04-26 21:43 7.24984 79.93637 1334 ft 167 kts 217°
2026-04-26 21:43 7.24063 79.92934 1169 ft 164 kts 217°
2026-04-26 21:44 7.23198 79.92271 959 ft 150 kts 217°
2026-04-26 21:44 7.22375 79.91640 799 ft 148 kts 217°
2026-04-26 21:44 7.21553 79.91010 609 ft 149 kts 217°
2026-04-26 21:44 7.20719 79.90371 397 ft 152 kts 217°
2026-04-26 21:45 7.19880 79.89727 226 ft 152 kts 217°
2026-04-26 21:45 7.19043 79.89083 41 ft 147 kts 216°
2026-04-26 21:45 7.18318 79.88530 30 ft 97 kts 217°
2026-04-26 21:45 7.17981 79.88272 31 ft 35 kts 217°
2026-04-26 21:46 7.17856 79.88234 32 ft 16 kts 136°
2026-04-26 21:46 7.17799 79.88311 30 ft 16 kts 110°
2026-04-26 21:46 7.17850 79.88414 30 ft 15 kts 78°
2026-04-26 21:46 7.17815 79.88492 30 ft 14 kts 128°